Find Starlink 31416

NORAD ID: 59355 Int'l Des: 2024-060 Owner: SPXS Country: US Constellation: starlink operational
LEOCIRCULAR

当前视图

正在加载3D地球...

About Starlink 31416

Starlink 31416 (NORAD 59355) is a starlink constellation satellite (v2 mini) launched Mar 31, 2024 by SPXS of US. It operates in LEO, CIRCULAR orbit with a mass of 730.00 kg.

关于 Starlink 31416

正在加载描述...

即将过境

Passes for default location (London). Set your location on the main map for personalized predictions.

高度历史

Loading altitude history...

两行轨道根数

1 59355U 24060H 26171.35574355 -.00000319 00000-0 -20659-5 0 9995
2 59355 43.0051 40.1067 0000448 285.4939 74.5863 15.27569797125768
Epoch: Jun 20, 2026 • Age: 25 hours

当前状态

高度 482.1 km
速度 7.63 km/s
星下点 12.25°N, 7.92°W
发射日期 Mar 31, 2024
运行时间 2.2 years
类型 internet

技术详情

分类 Payload
质量 730.00 kg
干质量 700.00 kg
总质量 730.00 kg
长度 0.30 m
直径 4.10 m
跨度 29.00 m
形状 Box + pan
制造商 SPXS
平台类型 Starlink V2M
阶段状态 In Orbit
所有者/国家 SPXS/US

Most Searched